Regional Weather Roundup
Issued by NWS Albany, NY

Home | Current Version | Previous Version | Graphics & Text | Print | Product List | Glossary Off
Versions: 1 2 3 4 5 6 7 8 9 10 11 12 13 14 15 16 17 18 19 20 21 22 23 24 25 26 27

000
ASUS41 KALY 270510
RWRALY

NEW YORK STATE HOURLY WEATHER ROUNDUP
NATIONAL WEATHER SERVICE ALBANY NY
100 AM EDT MON MAR 27 2017

NOTE: "FAIR" INDICATES FEW OR NO CLOUDS BELOW 12,000 FEET WITH NO
SIGNIFICANT WEATHER AND/OR NO OBSTRUCTIONS TO VISIBILITY.

NYZ032-033-038>043-046>054-057>066-NYZ062>081-082-084-270600-
EAST


CITY           SKY/WX    TMP DP  RH WIND       PRES   REMARKS
ALBANY         CLOUDY    37  29  72 S12G18    30.27F WCI  29
GLENS FALLS    CLOUDY    33  29  85 CALM      30.26F
POUGHKEEPSIE   CLOUDY    35  32  88 SE5       30.29F WCI  31
NEWBURGH       CLOUDY    36  36 100 E7        30.29F FOG     WCI  30
MONTGOMERY     CLOUDY    36  35  96 NE5       30.27F FOG     WCI  32
WHITE PLAINS   DRIZZLE   36  34  92 E8        30.28F FOG     WCI  30
ISLIP          CLOUDY    38  38 100 E7        30.29F FOG     WCI  33
NEW YORK CITY  DRIZZLE   40  37  89 NE15      30.29F FOG     WCI  32
CENTRAL PARK   CLOUDY    38  37  97 NE10      30.31F FOG     WCI  31
$$

NYZ005>009-017-018-044>046-055-056-270600-
CENTRAL


CITY           SKY/WX    TMP DP  RH WIND       PRES   REMARKS
FULTON         CLOUDY    38  35  89 SE8       30.07F WCI  32
SYRACUSE       CLOUDY    40  37  89 SE10G21   30.09F WCI  33
ROME           LGT RAIN  35  34  96 E8        30.17F WCI  29
ELMIRA         LGT RAIN  42  37  82 CALM      30.10F
BINGHAMTON     CLOUDY    34  33  96 S13G22    30.12F FOG     WCI  25
MONTICELLO     CLOUDY    32  32 100 E9        30.23F WCI  24
$$

NYZ026>034-041>043-087-270600-
NORTH


CITY           SKY/WX    TMP DP  RH WIND       PRES   REMARKS
WATERTOWN      LGT RAIN  42  40  92 CALM      30.05F FOG
FORT DRUM      NOT AVBL
MASSENA        CLOUDY    34  30  85 E8        30.13F WCI  27
SARANAC LAKE   CLOUDY    33  33 100 SW3       30.08F
PLATTSBURGH    CLOUDY    36  30  79 SE13      30.16F WCI  27
$$

NYZ001>004-010>016-019>021-085-270600-
WEST


CITY           SKY/WX    TMP DP  RH WIND       PRES   REMARKS
NIAGARA FALLS  CLOUDY    50  44  80 S10       29.93F
BUFFALO        CLOUDY    48  44  86 S12       29.94F
DUNKIRK        CLOUDY    50  44  80 S22G31    29.92F
JAMESTOWN      CLOUDY    45  41  87 S12G17    29.96F
WELLSVILLE     CLOUDY    42  39  89 S12G18    30.02F
ROCHESTER      LGT RAIN  48  42  80 S14       29.99F
PENN YAN       LGT RAIN  43  37  79 S15G23    30.04F
$$

             KEY
       WCI = WIND CHILL INDEX
       VSB = VISIBILITY
       HX  = HEAT INDEX
$$




USA.gov is the U.S. government's official web portal to all federal, state and local government web resources and services.